Total_Precipitation_Accumulation
0.00 0.01 0.02 0.06 0.10 0.11 0.15 0.20 0.30 0.41 0.46 0.46 0.47 0.59 0.63 0.60 0.95 1.79 1.25 0.75 0.59 0.47 0.30 0.22 0.19 0.17 0.17 0.15 0.17 0.18 0.18 0.17 0.15 0.13 0.12 0.11 0.10 0.10 0.11 0.11 0.12 0.16 0.19 0.18 0.17 0.16 0.16 0.15 0.13
0.01 0.01 0.01 0.04 0.10 0.10 0.12 0.18 0.31 0.45 0.49 0.44 0.45 0.50 0.52 0.58 0.54 0.62 0.64 0.53 0.48 0.43 0.39 0.29 0.25 0.21 0.18 0.17 0.17 0.19 0.18 0.17 0.15 0.13 0.12 0.11 0.11 0.12 0.13 0.14 0.15 0.20 0.23 0.21 0.17 0.15 0.13 0.12 0.13
0.01 0.01 0.02 0.03 0.05 0.07 0.15 0.23 0.32 0.46 0.52 0.49 0.57 0.68 0.74 0.67 0.61 0.58 0.54 0.45 0.40 0.35 0.34 0.35 0.29 0.24 0.22 0.20 0.19 0.21 0.22 0.18 0.16 0.16 0.16 0.16 0.14 0.14 0.17 0.21 0.24 0.25 0.25 0.26 0.24 0.20 0.18 0.16 0.14
0.01 0.01 0.01 0.02 0.03 0.05 0.12 0.25 0.37 0.44 0.53 0.54 0.59 0.86 0.92 0.66 0.63 0.59 0.58 0.44 0.35 0.37 0.35 0.34 0.33 0.30 0.30 0.29 0.25 0.24 0.23 0.21 0.21 0.21 0.21 0.19 0.20 0.20 0.24 0.31 0.36 0.34 0.32 0.34 0.34 0.30 0.24 0.19 0.18
0.01 0.02 0.03 0.02 0.03 0.05 0.11 0.23 0.38 0.47 0.52 0.53 0.57 0.86 1.10 0.93 0.72 0.64 0.53 0.37 0.32 0.40 0.45 0.37 0.40 0.40 0.39 0.38 0.35 0.33 0.30 0.29 0.30 0.29 0.27 0.25 0.25 0.28 0.32 0.39 0.41 0.41 0.40 0.40 0.37 0.30 0.23 0.20 0.21
0.01 0.03 0.06 0.04 0.04 0.08 0.13 0.15 0.31 0.51 0.58 0.61 0.66 1.00 1.45 1.38 0.93 0.65 0.57 0.50 0.44 0.45 0.41 0.41 0.43 0.46 0.46 0.48 0.51 0.49 0.44 0.39 0.38 0.37 0.35 0.32 0.30 0.33 0.38 0.42 0.44 0.44 0.41 0.37 0.33 0.29 0.26 0.26 0.26
0.02 0.04 0.06 0.05 0.06 0.12 0.16 0.19 0.30 0.42 0.54 0.62 0.66 1.09 1.42 1.37 1.12 0.86 0.79 0.67 0.60 0.55 0.54 0.58 0.63 0.65 0.66 0.68 0.68 0.66 0.59 0.52 0.46 0.42 0.36 0.33 0.33 0.36 0.40 0.47 0.51 0.50 0.41 0.36 0.34 0.32 0.29 0.29 0.28
0.02 0.05 0.05 0.04 0.06 0.15 0.20 0.25 0.33 0.36 0.55 0.60 0.65 1.05 1.45 1.49 1.29 1.27 1.24 1.10 0.97 0.92 0.93 0.96 0.95 0.88 0.79 0.74 0.75 0.72 0.66 0.60 0.52 0.43 0.37 0.37 0.41 0.47 0.54 0.50 0.53 0.53 0.49 0.44 0.43 0.38 0.33 0.32 0.31
0.02 0.04 0.04 0.03 0.07 0.15 0.22 0.31 0.35 0.39 0.52 0.75 0.76 0.91 1.26 1.42 1.41 1.50 1.55 1.43 1.50 1.52 1.49 1.34 1.27 1.10 1.10 1.01 0.79 0.79 0.75 0.70 0.61 0.55 0.49 0.51 0.62 0.79 0.86 0.70 0.73 0.68 0.63 0.60 0.60 0.55 0.51 0.46 0.41
0.02 0.03 0.05 0.04 0.06 0.13 0.21 0.30 0.33 0.44 0.57 0.88 0.96 1.04 1.27 1.47 1.73 1.81 1.70 1.64 1.76 1.98 1.87 1.58 1.55 1.52 1.37 1.19 1.11 1.06 0.93 0.90 0.81 0.90 0.80 0.87 1.18 1.29 1.14 1.12 1.02 1.01 0.96 0.85 0.84 0.80 0.67 0.60 0.61
0.01 0.04 0.05 0.08 0.11 0.19 0.26 0.34 0.38 0.48 0.77 1.01 1.20 1.41 1.52 1.73 1.91 2.05 2.05 1.96 2.00 1.99 1.78 1.75 1.87 1.78 1.73 1.70 1.64 1.47 1.40 1.33 1.19 1.29 1.27 1.35 1.36 1.30 1.33 1.45 1.38 1.31 1.25 1.28 1.30 1.09 0.91 0.95 1.01
0.02 0.05 0.08 0.13 0.18 0.25 0.34 0.44 0.55 0.58 0.80 1.09 1.24 1.56 1.85 2.10 2.16 2.27 2.41 2.26 2.34 2.22 1.98 1.89 1.83 1.89 2.01 1.95 1.92 1.93 1.89 1.85 1.74 1.70 1.52 1.66 1.74 1.78 1.78 1.91 1.90 1.91 1.92 1.92 1.81 1.62 1.47 1.34 1.30
0.03 0.04 0.09 0.19 0.23 0.29 0.40 0.53 0.59 0.68 0.78 0.94 1.16 1.40 1.51 1.79 2.15 2.66 2.69 2.80 2.90 2.78 2.50 2.25 2.22 2.16 2.16 2.25 2.28 2.05 2.14 2.15 2.28 2.23 1.98 2.03 2.08 2.13 2.31 2.31 2.39 2.35 2.51 2.44 2.24 1.99 1.89 1.74 1.47
0.05 0.07 0.09 0.17 0.24 0.35 0.45 0.55 0.56 0.74 0.91 0.93 1.04 1.20 1.48 1.63 1.83 2.34 2.78 2.96 3.05 3.10 2.89 2.61 2.44 2.40 2.33 2.50 2.67 2.55 2.38 2.42 2.45 2.53 2.40 2.40 2.45 2.52 2.60 2.63 2.69 2.57 2.58 2.62 2.52 2.24 2.11 1.96 1.73
0.05 0.11 0.17 0.20 0.22 0.28 0.37 0.57 0.59 0.68 0.94 1.13 1.14 1.23 1.49 1.84 2.03 2.45 2.84 3.15 3.39 3.31 3.00 2.94 2.71 2.81 2.94 3.16 3.08 3.07 3.01 2.95 2.86 2.79 2.83 2.77 2.79 2.86 2.86 3.03 3.07 2.94 2.88 2.84 2.77 2.62 2.37 2.22 2.11
0.08 0.17 0.27 0.27 0.24 0.21 0.34 0.65 0.72 0.72 0.96 1.12 1.30 1.44 1.58 1.84 2.13 2.49 2.77 2.97 3.27 3.29 3.22 3.30 3.09 3.08 3.25 3.27 3.21 3.26 3.46 3.41 3.28 3.15 3.20 3.10 3.14 3.26 3.41 3.34 3.20 3.11 3.03 3.02 3.14 2.95 2.62 2.51 2.55
0.10 0.16 0.23 0.28 0.27 0.27 0.35 0.61 0.69 0.72 0.93 1.08 1.16 1.32 1.46 1.56 1.85 2.26 2.71 2.96 3.12 3.21 3.13 3.30 3.46 3.25 3.39 3.47 3.50 3.57 3.71 3.76 3.74 3.70 3.60 3.54 3.59 3.60 3.75 3.69 3.50 3.31 3.23 3.23 3.03 3.02 2.91 2.90 2.83
0.10 0.10 0.15 0.20 0.23 0.27 0.35 0.55 0.70 0.73 0.97 1.04 1.22 1.20 1.32 1.51 1.81 2.18 2.72 3.04 3.11 3.25 3.28 3.34 3.61 3.54 3.78 3.86 3.66 3.71 3.74 3.78 3.86 3.98 4.01 4.09 4.13 4.06 4.04 3.92 3.79 3.66 3.50 3.38 3.25 3.22 3.17 3.01 2.87
0.08 0.09 0.15 0.17 0.21 0.30 0.41 0.60 0.77 0.84 1.02 1.10 1.26 1.31 1.54 1.62 1.77 2.18 2.65 3.03 3.41 3.48 3.58 3.55 3.62 3.79 3.91 4.03 4.02 4.17 4.10 4.02 4.22 4.43 4.49 4.62 4.68 4.53 4.48 4.35 4.22 4.00 3.73 3.54 3.37 3.25 3.10 2.86 2.76
0.08 0.10 0.19 0.27 0.29 0.38 0.49 0.66 0.87 0.99 0.97 1.16 1.39 1.42 1.87 2.00 1.99 2.21 2.70 3.09 3.43 3.65 3.75 3.87 3.96 3.95 4.06 4.45 4.87 5.19 5.44 5.45 5.37 5.45 5.47 5.32 5.19 5.10 4.96 4.86 4.60 4.27 4.00 3.70 3.45 3.24 2.97 2.74 2.69
0.10 0.13 0.21 0.34 0.35 0.45 0.60 0.98 1.11 1.08 1.09 1.25 1.50 1.58 1.94 2.16 2.27 2.13 2.28 2.69 3.11 3.44 3.66 3.75 3.99 4.31 4.76 5.31 5.73 6.03 6.31 6.40 6.18 5.94 5.81 5.55 5.31 5.16 4.85 4.61 4.50 4.22 3.82 3.56 3.39 3.20 2.98 2.76 2.64
0.11 0.11 0.18 0.25 0.33 0.52 0.57 1.09 1.31 1.27 1.34 1.45 1.55 1.51 1.72 1.78 2.01 2.16 2.19 2.41 2.76 3.05 3.34 3.61 3.89 4.46 5.33 5.98 6.41 6.76 6.87 6.79 6.62 6.38 6.00 5.50 5.11 4.77 4.49 4.23 3.95 3.70 3.38 3.15 2.96 2.88 2.84 2.74 2.56
0.06 0.07 0.13 0.18 0.24 0.39 0.47 0.91 1.27 1.29 1.45 1.59 1.67 1.56 1.62 1.76 1.76 1.85 1.94 2.11 2.50 2.83 3.09 3.44 3.78 4.43 5.11 5.73 6.31 6.73 6.84 6.75 6.51 6.05 5.53 4.99 4.51 4.09 3.76 3.50 3.25 3.00 2.71 2.50 2.32 2.30 2.42 2.48 2.43
0.04 0.09 0.17 0.24 0.35 0.57 0.50 0.78 1.37 1.56 1.70 1.84 1.79 1.86 2.05 1.98 1.82 1.77 1.76 1.84 2.07 2.39 2.67 3.06 3.45 3.97 4.52 4.92 5.42 5.80 5.97 5.87 5.50 4.99 4.39 3.97 3.68 3.39 3.06 2.79 2.55 2.30 2.06 1.91 1.84 1.81 1.87 2.01 2.10
0.06 0.15 0.42 0.52 0.60 0.65 0.48 0.86 1.58 1.78 1.74 1.86 1.93 2.03 2.14 2.04 1.94 1.80 1.74 1.73 1.85 2.06 2.33 2.59 2.83 3.25 3.55 3.87 4.30 4.56 4.56 4.40 4.13 3.87 3.64 3.23 2.83 2.50 2.27 2.03 1.83 1.64 1.56 1.53 1.54 1.55 1.59 1.63 1.70
0.06 0.13 0.43 0.71 0.69 0.67 0.75 1.36 1.95 1.90 1.74 1.69 1.79 1.91 1.94 1.75 1.69 1.68 1.65 1.68 1.80 1.78 1.91 2.10 2.21 2.40 2.57 2.73 2.94 2.98 2.95 2.89 2.85 2.73 2.48 2.22 1.92 1.64 1.51 1.42 1.28 1.21 1.19 1.15 1.19 1.26 1.33 1.38 1.40
0.07 0.11 0.17 0.36 0.45 0.74 1.23 1.79 2.17 1.95 1.86 1.80 1.67 1.54 1.66 1.59 1.49 1.53 1.59 1.63 1.71 1.66 1.62 1.69 1.72 1.71 1.78 1.82 1.92 1.97 1.94 1.93 1.91 1.82 1.68 1.54 1.43 1.26 1.15 1.12 1.08 1.03 1.03 1.02 1.03 1.01 1.01 1.10 1.19
0.08 0.11 0.18 0.36 0.73 1.02 1.39 1.90 2.37 2.34 2.27 2.21 1.95 1.63 1.69 1.65 1.59 1.50 1.45 1.53 1.60 1.52 1.47 1.50 1.53 1.45 1.41 1.36 1.35 1.35 1.38 1.36 1.34 1.31 1.22 1.18 1.16 1.09 0.99 0.90 0.87 0.83 0.80 0.85 0.93 0.92 0.88 0.90 0.93
0.12 0.15 0.21 0.40 0.60 1.00 1.64 2.24 2.22 2.45 2.55 2.37 2.06 1.74 1.73 1.65 1.61 1.61 1.56 1.46 1.42 1.41 1.41 1.33 1.28 1.25 1.20 1.14 1.11 1.06 1.01 0.99 0.97 0.93 0.89 0.87 0.85 0.83 0.78 0.72 0.69 0.67 0.65 0.69 0.77 0.82 0.82 0.83 0.82
0.17 0.19 0.23 0.51 0.60 0.72 1.38 2.30 2.26 2.45 2.56 2.37 2.30 2.08 1.88 1.86 1.73 1.63 1.58 1.48 1.44 1.31 1.25 1.22 1.18 1.09 1.01 1.00 0.97 0.89 0.84 0.83 0.86 0.82 0.74 0.69 0.70 0.72 0.70 0.65 0.61 0.56 0.57 0.64 0.67 0.68 0.66 0.71 0.73